{"data":{"norad_id":50163,"intl_designator":"2021-125H","name":"STARLINK-3306","alt_names":[],"object_type":"PAYLOAD","status":"ACTIVE","operator":null,"country":"US","launch_date":"2021-12-18","launch_site_code":"AFWTR","launch_vehicle":null,"mission":null,"orbit_class":"UNKNOWN","rcs_meters":null,"size_class":null,"mass_kg":null,"dimensions":null,"purposes":["comms"],"wikipedia_slug":null,"has_3d_model":false,"image_url":null,"decayed_at":null,"tle_current":{"epoch":"2026-09-20T04:00:03.000096Z","epoch_age_seconds":73562,"freshness":"FRESH","line1":"1 50163U 21125H   26263.16670139  .00182969  00000+0  69743-3 0  9994","line2":"2 50163  53.2098  39.7772 0004349 299.0831  39.6105 15.86509685  5991","mean_motion":15.86509685,"eccentricity":0.0004349,"inclination_deg":53.2098,"raan_deg":39.7772,"arg_perigee_deg":299.0831,"mean_anomaly_deg":39.6105,"bstar":0.00069743,"rev_number":599,"period_min":90.765282658832,"perigee_km":309.16762799689,"apogee_km":314.98677630993,"semimajor_km":6690.2142021534,"source":"CELESTRAK","updated_at":"2026-09-20T09:00:39.413623Z"}}}